Flag for Canada Weather past 2 weeks in Strathcona County, Alberta, Canada

Now
49 °F

Cool.


Feels Like: 48 °F
Forecast: 45 / 64 °F
Wind: 3 mph from Northeast

Location: Edmonton Municipal

Current Time: Jun 2, 2015 at 3:50:23 AM

Latest Report: Jun 2, 2015 at 3:00 AM


Visibility: N/A

Pressure: 30.06 "Hg

Humidity: 69%

Dew point: 39 °F

Location of Strathcona CountyLocation

Historic Weather in Strathcona County — Graph

°F

Strathcona County temperature yesterday

Maximum temperature yesterday: 65 °F (at 3:00 PM)
Minimum temperature yesterday: 47 °F (at 6:00 AM)
Average temperature yesterday: 58 °F

Past Weeks' High & Low Weather Summary

 TemperatureHumidityPressure
High80 °F (May 23, 4:00 PM)85% (May 31, 7:00 AM)30.43 "Hg (May 31, 7:00 AM)
Low40 °F (May 18, 6:00 AM)11% (May 22, 5:00 PM)29.76 "Hg (May 31, 4:00 PM)
Average61 °F36%30.07 "Hg
* Reported May 18 2:00 AM — Jun 2 2:00 AM, Strathcona County, Weather by CustomWeather, © 2015

Note: Actual official high and low records may vary slightly from our data, if they occured in-between our weather recording intervals... More about our weather records

Advertising

Strathcona County weather history for previous 24 hours

 ConditionsComfort  
Time TempWeatherWind HumidityBarometerVisibility
2:00 AM
Tue, Jun 2
48 °FCool.3 mph69%30.07 "HgN/A
1:00 AM49 °FCool.8 mph67%30.06 "HgN/A
12:00 AM50 °FCool.9 mph62%30.04 "HgN/A
11:00 PM
Mon, Jun 1
53 °FCool.9 mph56%30.03 "HgN/A
10:00 PM56 °FRefreshingly cool.7 mph50%30.02 "HgN/A
9:00 PM58 °FRefreshingly cool.9 mph48%30.00 "HgN/A
8:00 PM60 °FRefreshingly cool.9 mph43%30.00 "HgN/A
7:00 PM62 °FRefreshingly cool.13 mph43%30.00 "HgN/A
6:00 PM64 °FMild.13 mph43%29.99 "HgN/A
5:00 PM64 °FMild.12 mph44%30.00 "HgN/A
4:00 PM64 °FMild.14 mph42%29.99 "HgN/A
3:00 PM65 °FMild.10 mph41%29.98 "HgN/A
2:00 PM63 °FMild.12 mph51%29.98 "HgN/A
1:00 PM63 °FMild.12 mph53%29.97 "HgN/A
12:00 PM63 °FMild.9 mph51%29.94 "HgN/A
11:00 AM64 °FMild.7 mph49%29.93 "HgN/A
10:00 AM63 °FMild.5 mph47%29.91 "HgN/A
9:00 AM58 °FRefreshingly cool.2 mph56%29.90 "HgN/A
8:00 AM57 °FCool.2 mph61%29.90 "HgN/A
7:00 AM52 °FCool.2 mph73%29.89 "HgN/A
6:00 AM47 °FCool.No wind80%29.89 "HgN/A
5:00 AM49 °FCool.5 mph79%29.88 "HgN/A
4:00 AM50 °FCool.5 mph74%29.87 "HgN/A
3:00 AM52 °FCool.5 mph70%29.86 "HgN/A
Weather by CustomWeather, © 2015

See weather overviewHow to use our weather pages